TimeEST,TemperatureF,Dew PointF,Humidity,Sea Level PressureIn,VisibilityMPH,Wind Direction,Wind SpeedMPH,Gust SpeedMPH,PrecipitationIn,Events,Conditions,WindDirDegrees,DateUTC
12:53 AM,35.1,28.9,78,30.15,10.0,Calm,Calm,-,N/A,,Overcast,0,2012-11-05 05:53:00
1:53 AM,36.0,28.9,76,30.14,10.0,WNW,4.6,-,N/A,,Overcast,300,2012-11-05 06:53:00
2:53 AM,36.0,28.0,73,30.14,10.0,Calm,Calm,-,N/A,,Overcast,0,2012-11-05 07:53:00
3:53 AM,36.0,28.0,73,30.15,10.0,WNW,5.8,-,N/A,,Overcast,300,2012-11-05 08:53:00
4:53 AM,36.0,27.0,70,30.16,10.0,North,3.5,-,N/A,,Overcast,360,2012-11-05 09:53:00
5:53 AM,35.1,27.0,72,30.17,10.0,North,3.5,-,N/A,,Overcast,10,2012-11-05 10:53:00
6:53 AM,30.9,26.1,82,30.18,10.0,Calm,Calm,-,N/A,,Mostly Cloudy,0,2012-11-05 11:53:00
7:53 AM,30.0,27.0,88,30.19,10.0,Calm,Calm,-,N/A,,Mostly Cloudy,0,2012-11-05 12:53:00
8:53 AM,34.0,28.0,79,30.20,10.0,WSW,3.5,-,N/A,,Mostly Cloudy,250,2012-11-05 13:53:00
9:53 AM,37.9,28.9,70,30.19,10.0,Calm,Calm,-,N/A,,Overcast,0,2012-11-05 14:53:00
10:53 AM,39.9,28.9,65,30.19,10.0,North,6.9,-,N/A,,Overcast,10,2012-11-05 15:53:00
11:53 AM,41.0,28.0,60,30.18,10.0,Calm,Calm,-,N/A,,Overcast,0,2012-11-05 16:53:00
12:53 PM,41.0,27.0,57,30.18,10.0,Calm,Calm,-,N/A,,Overcast,0,2012-11-05 17:53:00
1:53 PM,42.1,27.0,55,30.16,10.0,NNE,3.5,-,N/A,,Overcast,30,2012-11-05 18:53:00
2:53 PM,45.0,28.0,52,30.14,10.0,North,6.9,-,N/A,,Scattered Clouds,10,2012-11-05 19:53:00
3:53 PM,43.0,28.0,56,30.14,10.0,NE,8.1,-,N/A,,Overcast,50,2012-11-05 20:53:00
4:53 PM,39.9,27.0,60,30.15,10.0,ENE,5.8,-,N/A,,Partly Cloudy,70,2012-11-05 21:53:00
5:53 PM,37.0,27.0,67,30.16,10.0,NNE,5.8,-,N/A,,Clear,30,2012-11-05 22:53:00
6:53 PM,36.0,27.0,70,30.17,10.0,Calm,Calm,-,N/A,,Clear,0,2012-11-05 23:53:00
7:53 PM,35.1,26.1,70,30.17,10.0,NE,3.5,-,N/A,,Clear,40,2012-11-06 00:53:00
8:53 PM,33.1,26.1,75,30.18,10.0,NE,3.5,-,N/A,,Clear,40,2012-11-06 01:53:00
9:53 PM,32.0,25.0,75,30.18,10.0,NE,3.5,-,N/A,,Clear,40,2012-11-06 02:53:00
10:53 PM,32.0,24.1,73,30.18,10.0,Calm,Calm,-,N/A,,Clear,0,2012-11-06 03:53:00
11:53 PM,30.0,24.1,79,30.17,10.0,NNE,3.5,-,N/A,,Clear,30,2012-11-06 04:53:00